Вернуться в каталог

STARLINK-31905

АктивенСвязьVLEO
NORAD 59896·PAYLOAD·🇺🇸 United States

Запущен May 28, 2024 с Cape Canaveral Space Force Station

Loading…

Ближайшие Пролёты (ближайшие 24 часа)

TLE

СвежийSource: CelesTrak SupGP

Эпоха: Sep 14, 2026, 20:45 UTC

1 59896C 24100M   26257.86506944 -.00029237  00000+0 -10591-2 0  2577
2 59896  43.0016 133.6878 0001453 266.2708 234.3879 15.27588385    12

Отслеживайте STARLINK-31905 в реальном времени с AllMySat

Download on the App Store